180P/NEAT (2008)

Japanese version
Home page
Updated on October 12, 2008

---------------------------------------------------------------------

* Profile

Designation 180P/2006 U3
Recovery Date October 23, 2006
Magnitude 22.4 mag
Recoverer J. L. Ortiz and A. Mora (La Palma)

* Pictures

* Orbital Elements

                    Epoch = 2008 May  14.0 TT
     T = 2008 May  26.7064 TT         Peri. =  94.9130
     e = 0.357635                     Node  =  84.7534  2000.0
     q = 2.468702 AU                  Incl. =  16.9133
       a =  3.843143 AU    n = 0.1308200    P =   7.534 years

* Finding Charts

* Magnitudes Graph

        m1 = 7.5 + 5 log d + 20.0 log r

---------------------------------------------------------------------

The orbital elements are calculated by Dr. Brian G. Marsden and printed on IAUC 8765.
The charts are made with StellaNavigator Ver.2.0 for Windows (AstroArts / ASCII).
The magnitudes graphs are made with Comet for Windows.

---------------------------------------------------------------------

Copyright(C) Seiichi Yoshida (comet@aerith.net). All rights reserved.